GW5848 Weather Reports


time (UTC)temp
F
wind
direction
speed
knots
gust
knots
rain 1hr
in
rain 24hr
in
rain mn
in
humidity
%
barometer
mb
20260504050511 44 352 0.0 0.9 0.00 0.00 0.00 73 1015.9
20260504045506 44 352 0.0 0.9 0.00 0.00 0.00 71 1015.8
20260504045009 44 352 0.0 0.9 0.00 0.00 0.00 71 1015.7
20260504044532 44 351 0.0 0.9 0.00 0.00 0.00 69 1015.6
20260504044012 44 351 0.0 0.9 0.00 0.00 0.00 69 1015.6
20260504043511 44 112 0.0 1.7 0.00 0.00 0.00 68 1015.5
20260504043030 44 112 0.0 1.7 0.00 0.00 0.00 68 1015.5
20260504042508 44 116 0.0 1.7 0.00 0.00 0.00 69 1015.5
20260504042007 44 129 0.9 2.6 0.00 0.00 0.00 69 1015.5
20260504041518 44 92 0.9 2.6 0.00 0.00 0.00 70 1015.6
20260504041008 44 96 0.9 1.7 0.00 0.00 0.00 71 1015.7
20260504040507 43 105 0.0 0.9 0.00 0.00 0.00 72 1015.7
20260504040022 43 199 0.0 0.9 0.00 0.00 0.00 73 1015.7
20260504035508 43 211 0.0 0.9 0.00 0.00 0.00 74 1015.8
20260504035012 43 211 0.0 0.0 0.00 0.00 0.00 74 1015.8
20260504034526 43 212 0.0 0.0 0.00 0.00 0.00 75 1015.8
20260504034017 43 212 0.0 0.9 0.00 0.00 0.00 75 1015.8
20260504033509 43 212 0.0 0.9 0.00 0.00 0.00 76 1015.7
20260504033031 44 212 0.0 0.9 0.00 0.00 0.00 73 1015.6
20260504032507 44 104 0.0 1.7 0.00 0.00 0.00 69 1015.6
20260504032013 44 58 0.0 1.7 0.00 0.00 0.00 67 1015.6
20260504031516 44 48 0.0 0.0 0.00 0.00 0.00 69 1015.7
20260504031005 44 29 0.0 0.9 0.00 0.00 0.00 73 1015.7
20260504030505 44 29 0.0 0.9 0.00 0.00 0.00 73 1015.7
20260504030021 44 29 0.0 1.7 0.00 0.00 0.00 67 1015.7
20260504025509 44 105 0.0 2.6 0.00 0.00 0.00 67 1015.4
20260504025005 43 96 0.9 2.6 0.00 0.00 0.00 68 1015.3
20260504024504 42 102 0.0 1.7 0.00 0.00 0.00 73 1015.3
20260504024003 41 126 0.0 0.0 0.00 0.00 0.00 78 1015.3
20260504023503 41 126 0.0 0.0 0.00 0.00 0.00 77 1015.4
20260504023007 41 126 0.0 0.0 0.00 0.00 0.00 76 1015.4
20260504022503 41 126 0.0 0.0 0.00 0.00 0.00 74 1015.4
20260504022004 41 126 0.0 0.0 0.00 0.00 0.00 73 1015.4
20260504021512 41 126 0.0 0.0 0.00 0.00 0.00 73 1015.2
20260504021006 41 126 0.0 0.0 0.00 0.00 0.00 74 1015.2
20260504020503 41 126 0.0 0.9 0.00 0.00 0.00 73 1015.2
20260504020020 41 126 0.0 1.7 0.00 0.00 0.00 73 1015.2
20260504015505 41 121 0.9 1.7 0.00 0.00 0.00 74 1015.2
20260504015007 42 109 0.0 0.9 0.00 0.00 0.00 72 1015.1
20260504014538 42 326 0.0 0.0 0.00 0.00 0.00 70 1015.1
20260504014006 43 326 0.0 0.9 0.00 0.00 0.00 68 1015.1
20260504013510 43 324 0.9 0.9 0.00 0.00 0.00 69 1015.1
20260504013011 44 21 0.0 1.7 0.00 0.00 0.00 67 1015.0
20260504012505 44 21 0.9 1.7 0.00 0.00 0.00 66 1014.8
20260504012003 45 42 0.0 0.9 0.00 0.00 0.00 64 1014.8
20260504011507 47 60 0.0 2.6 0.00 0.00 0.00 62 1014.7
20260504011004 47 81 0.0 2.6 0.00 0.00 0.00 57 1014.6
20260504010510 47 89 0.0 2.6 0.00 0.00 0.00 56 1014.6
20260504010014 48 84 0.9 2.6 0.00 0.00 0.00 56 1014.6
20260504005503 48 94 0.0 2.6 0.00 0.00 0.00 56 1014.7
20260504005006 49 89 0.9 2.6 0.00 0.00 0.00 53 1014.7
20260504004519 49 99 0.0 2.6 0.00 0.00 0.00 51 1014.6
20260504004004 50 103 0.9 2.6 0.00 0.00 0.00 51 1014.6
20260504003509 50 104 1.7 2.6 0.00 0.00 0.00 49 1014.5
20260504003022 51 109 0.9 2.6 0.00 0.00 0.00 49 1014.4
20260504002509 51 93 0.9 2.6 0.00 0.00 0.00 47 1014.4
20260504002010 52 99 0.9 1.7 0.00 0.00 0.00 46 1014.4
20260504001528 53 110 0.0 1.7 0.00 0.00 0.00 46 1014.4
20260504001004 54 108 0.9 1.7 0.00 0.00 0.00 44 1014.4
20260504000503 55 91 0.0 0.9 0.00 0.00 0.00 45 1014.3
20260504000020 56 91 0.0 0.9 0.00 0.00 0.00 43 1014.2
20260503235505 57 121 0.0 0.9 0.00 0.00 0.00 39 1014.2
20260503235003 59 345 0.0 0.0 0.00 0.00 0.00 38 1014.2
20260503234512 60 345 0.0 0.0 0.00 0.00 0.00 34 1014.2
20260503234005 61 345 0.0 0.0 0.00 0.00 0.00 33 1014.2
20260503233504 61 345 0.0 0.9 0.00 0.00 0.00 31 1014.2
20260503233020 63 345 0.0 0.9 0.00 0.00 0.00 29 1014.2
20260503232510 63 345 0.0 0.9 0.00 0.00 0.00 29 1014.2
20260503232010 63 345 0.0 0.9 0.00 0.00 0.00 28 1014.1
20260503231520 63 345 0.0 0.9 0.00 0.00 0.00 28 1014.1
20260503231009 63 345 0.0 0.9 0.00 0.00 0.00 26 1014.0
20260503230510 63 42 0.0 2.6 0.00 0.00 0.00 25 1014.0
20260503230025 63 321 0.0 3.5 0.00 0.00 0.00 26 1013.9
20260503225506 63 301 0.0 3.5 0.00 0.00 0.00 25 1014.0
20260503225003 62 56 0.9 5.2 0.00 0.00 0.00 24 1013.9
20260503224509 62 359 0.0 5.2 0.00 0.00 0.00 24 1014.0
20260503224009 63 327 1.7 3.5 0.00 0.00 0.00 22 1013.9
20260503223503 63 318 1.7 4.3 0.00 0.00 0.00 22 1013.9
20260503223013 63 314 2.6 7.0 0.00 0.00 0.00 24 1013.9
20260503222505 63 315 2.6 7.0 0.00 0.00 0.00 26 1013.8
20260503222007 63 330 2.6 7.8 0.00 0.00 0.00 25 1013.8
20260503221518 63 55 0.9 7.8 0.00 0.00 0.00 27 1013.8
20260503221009 63 333 1.7 7.8 0.00 0.00 0.00 26 1014.0
20260503220508 63 313 3.5 7.8 0.00 0.00 0.00 24 1014.0
20260503220027 63 290 3.5 7.8 0.00 0.00 0.00 24 1014.1
20260503215507 63 310 2.6 7.0 0.00 0.00 0.00 25 1014.0
20260503215012 63 337 1.7 6.1 0.00 0.00 0.00 24 1014.1
20260503214531 63 358 1.7 7.0 0.00 0.00 0.00 23 1014.1
20260503214004 63 302 2.6 7.8 0.00 0.00 0.00 24 1014.1
20260503213507 63 280 3.5 7.8 0.00 0.00 0.00 23 1014.2
20260503213012 63 7 1.7 8.7 0.00 0.00 0.00 24 1014.2
20260503212504 63 327 3.5 8.7 0.00 0.00 0.00 25 1014.2
20260503212005 63 285 4.3 11.3 0.00 0.00 0.00 24 1014.3
20260503211515 62 326 1.7 11.3 0.00 0.00 0.00 24 1014.2
20260503211004 63 337 5.2 8.7 0.00 0.00 0.00 26 1014.2
20260503210505 63 345 2.6 7.8 0.00 0.00 0.00 28 1014.3
20260503210038 64 323 2.6 6.1 0.00 0.00 0.00 24 1014.3
20260503205511 62 276 0.0 5.2 0.00 0.00 0.00 27 1014.5
20260503205007 62 257 3.5 9.6 0.00 0.00 0.00 28 1014.5
20260503204526 62 245 0.9 9.6 0.00 0.00 0.00 26 1014.5
20260503204015 62 307 7.0 9.6 0.00 0.00 0.00 25 1014.4
20260503203507 62 311 1.7 7.0 0.00 0.00 0.00 26 1014.5
20260503203029 62 214 1.7 9.6 0.00 0.00 0.00 25 1014.5
20260503202504 62 297 4.3 9.6 0.00 0.00 0.00 24 1014.6
20260503202004 62 209 2.6 7.8 0.00 0.00 0.00 27 1014.7
20260503201513 61 311 1.7 7.8 0.00 0.00 0.00 27 1014.8
20260503201004 62 349 1.7 7.8 0.00 0.00 0.00 29 1014.9
20260503200505 62 52 1.7 9.6 0.00 0.00 0.00 26 1014.7
20260503200017 62 291 3.5 9.6 0.00 0.00 0.00 25 1015.0
20260503195507 62 274 0.9 7.0 0.00 0.00 0.00 28 1015.0
20260503195007 62 317 2.6 9.6 0.00 0.00 0.00 25 1015.0
20260503194523 62 319 5.2 9.6 0.00 0.00 0.00 28 1015.0
20260503194007 61 327 4.3 10.4 0.00 0.00 0.00 27 1015.2
20260503193506 61 299 2.6 13.9 0.00 0.00 0.00 29 1015.2
20260503193023 60 311 5.2 13.9 0.00 0.00 0.00 27 1015.2
20260503192510 60 321 6.1 10.4 0.00 0.00 0.00 28 1015.3
20260503192010 60 312 5.2 8.7 0.00 0.00 0.00 27 1015.5
20260503191530 59 270 1.7 7.8 0.00 0.00 0.00 31 1015.5
20260503191003 60 56 4.3 7.8 0.00 0.00 0.00 29 1015.6
20260503190503 60 321 0.9 7.8 0.00 0.00 0.00 30 1015.7
20260503190012 60 296 4.3 9.6 0.00 0.00 0.00 27 1015.9
20260503185506 60 293 4.3 9.6 0.00 0.00 0.00 28 1016.0
20260503185011 60 290 3.5 10.4 0.00 0.00 0.00 30 1016.0
20260503184521 59 279 3.5 10.4 0.00 0.00 0.00 32 1016.0
20260503184011 59 268 5.2 10.4 0.00 0.00 0.00 31 1016.1
20260503183508 59 242 4.3 10.4 0.00 0.00 0.00 35 1016.3
20260503183026 59 288 6.1 8.7 0.00 0.00 0.00 30 1016.2
20260503182510 59 226 1.7 11.3 0.00 0.00 0.00 36 1016.2
20260503182012 58 65 2.6 11.3 0.00 0.00 0.00 36 1016.3
20260503181524 59 337 3.5 9.6 0.00 0.00 0.00 31 1016.3
20260503181004 58 306 2.6 7.0 0.00 0.00 0.00 33 1016.4
20260503180504 58 264 3.5 7.8 0.00 0.00 0.00 34 1016.4
20260503180010 57 224 1.7 13.0 0.00 0.00 0.00 32 1016.5
20260503175503 57 338 3.5 13.0 0.00 0.00 0.00 33 1016.6
20260503175003 56 313 6.1 9.6 0.00 0.00 0.00 31 1016.4
20260503174515 57 307 5.2 10.4 0.00 0.00 0.00 30 1016.5
20260503174010 57 293 3.5 10.4 0.00 0.00 0.00 33 1016.6
20260503173506 57 282 4.3 10.4 0.00 0.00 0.00 31 1016.5
20260503173021 57 321 4.3 8.7 0.00 0.00 0.00 35 1016.6
20260503172509 56 226 2.6 9.6 0.00 0.00 0.00 37 1016.6
20260503172013 56 311 4.3 12.2 0.00 0.00 0.00 34 1016.7
20260503171524 56 271 7.0 13.0 0.00 0.00 0.00 34 1016.9
20260503171009 55 341 5.2 13.0 0.00 0.00 0.00 34 1016.9
20260503170504 56 315 6.1 13.0 0.00 0.00 0.00 34 1017.0
20260503151009 50 303 6.1 11.3 0.00 0.00 0.00 40 1018.0
20260503150507 50 297 7.0 12.2 0.00 0.00 0.00 41 1018.1
20260503131004 47 321 4.3 10.4 0.00 0.00 0.00 49 1017.9
20260503130505 47 319 1.7 7.8 0.00 0.00 0.00 52 1017.9
20260503110515 36 108 0.0 0.9 0.00 0.00 0.00 76 1017.1
20260503090502 41 313 0.9 7.0 0.00 0.00 0.00 65 1015.5
20260503081505 41 317 1.7 5.2 0.00 0.00 0.00 67 1015.3
20260503081003 41 307 0.0 5.2 0.00 0.00 0.00 67 1015.3
20260503080503 41 323 1.7 4.3 0.00 0.00 0.00 68 1015.3
20260503071514 42 321 0.9 4.3 0.00 0.00 0.00 68 1014.7
20260503071002 42 326 1.7 4.3 0.00 0.00 0.00 67 1014.7
20260503070504 42 318 0.9 3.5 0.00 0.00 0.00 70 1014.6
20260503055003 39 16 0.0 0.9 0.00 0.00 0.00 75 1014.6
20260503054507 39 337 0.0 0.0 0.00 0.00 0.00 72 1014.5
20260503054002 40 338 0.0 0.0 0.00 0.00 0.00 72 1014.6
20260503053503 40 337 0.0 0.9 0.00 0.00 0.00 71 1014.6
20260503053008 40 337 0.0 0.9 0.00 0.00 0.00 70 1014.5
20260503052505 41 335 0.0 0.9 0.00 0.00 0.00 69 1014.6